Probability
0 1 2 2 2 2 2 1 1 1 3 3 1 1 1 1 3 6 7 7 5 6 10 13 16 18 20 23 23 20 17 14 10 6 6 8 10 10 6 3 3 3 3 3
0 1 4 5 4 5 4 3 2 2 2 2 1 1 1 3 5 7 9 8 6 6 8 10 13 16 19 22 23 21 18 14 10 8 8 9 10 8 4 3 3 3 3 3
0 1 4 5 5 6 6 4 3 2 2 1 2 2 2 4 6 8 10 10 7 5 5 7 10 14 19 21 22 22 20 15 12 10 10 11 10 6 3 2 2 3 3 3
0 1 2 3 3 4 5 4 3 2 2 3 3 3 3 4 6 7 9 11 8 4 4 6 9 14 19 20 21 22 19 15 14 12 11 11 10 7 3 2 3 4 4 4
0 0 1 1 1 2 3 3 3 3 3 4 4 3 3 4 5 6 8 9 7 5 6 8 11 15 19 20 20 21 19 16 15 13 11 11 10 8 5 4 5 5 5 5
0 0 1 0 0 1 2 3 3 3 3 4 3 3 3 3 3 4 6 6 6 7 9 10 12 15 18 17 18 20 21 19 16 13 12 11 10 8 5 4 5 6 6 6
0 1 1 0 0 0 1 2 2 2 3 3 3 3 3 2 1 2 4 5 7 10 11 10 11 14 16 16 17 19 21 22 19 14 12 12 11 9 5 3 3 5 6 6
1 1 1 0 0 0 0 1 1 3 4 4 3 3 3 2 1 0 2 5 9 11 11 10 11 13 15 16 17 19 21 22 20 16 14 14 13 10 8 5 3 4 6 6
0 1 1 0 0 0 0 0 1 2 3 3 3 3 3 2 1 1 2 6 9 10 12 12 11 12 15 16 17 18 20 21 21 18 17 16 13 11 10 8 5 4 5 6
0 0 0 0 0 0 0 0 0 1 1 2 3 3 2 1 1 2 5 9 10 10 11 12 10 11 14 16 17 18 21 23 22 20 17 16 14 13 13 10 7 5 5 6
0 0 0 0 0 0 0 0 0 0 0 1 3 4 2 1 1 3 8 12 12 11 10 9 8 8 12 16 19 21 23 24 22 17 16 16 15 14 13 10 6 5 6 6
0 0 0 0 0 0 0 0 0 0 0 1 3 3 2 1 2 4 8 12 12 10 8 7 7 8 10 15 21 25 26 24 19 15 16 19 18 15 12 7 3 3 3 4
0 0 0 0 0 0 0 0 0 1 1 2 3 3 2 3 3 4 7 9 9 8 7 6 7 8 11 15 20 24 25 22 19 17 19 22 22 19 13 6 2 1 1 1
0 0 0 0 0 0 0 0 1 2 3 3 3 4 4 4 5 6 7 8 7 7 6 6 7 9 12 14 16 19 20 19 17 18 20 21 22 21 16 9 6 4 1 0
0 0 0 0 0 0 0 1 2 2 2 2 2 4 6 6 6 8 7 6 6 6 6 6 6 8 10 11 12 14 14 14 14 15 17 17 17 16 13 9 7 6 3 1
0 0 0 0 0 0 0 1 1 1 1 1 1 2 5 6 7 7 6 5 5 6 5 5 4 5 6 8 10 12 11 10 10 11 12 12 11 9 8 6 5 4 3 2
0 0 0 0 0 0 0 0 0 0 0 0 0 1 4 6 6 5 5 5 6 6 6 5 4 4 5 8 12 13 10 8 8 9 9 8 6 5 4 3 2 1 1 1
0 0 0 0 0 0 0 0 0 0 0 0 0 1 3 5 4 4 4 5 6 7 7 6 5 5 7 10 13 14 11 8 7 7 7 6 4 3 2 1 1 0 0 0
0 0 0 0 0 0 0 0 0 0 0 0 0 1 2 3 3 2 2 3 5 6 6 5 5 5 7 10 12 12 11 8 7 7 6 6 4 2 1 0 0 0 0 0
0 0 0 0 0 0 0 0 0 0 0 0 0 0 1 1 1 1 0 2 3 4 3 4 4 5 6 7 8 8 8 7 6 6 6 5 3 1 0 0 0 0 0 0
0 0 0 0 0 0 0 0 0 0 0 0 0 0 0 0 0 0 0 0 1 1 1 1 3 4 3 3 3 5 6 6 6 6 5 4 2 0 0 0 0 0 0 0
0 0 0 0 0 0 0 0 0 0 0 0 0 0 0 0 0 0 0 0 0 0 0 0 1 2 1 1 2 4 6 6 6 6 4 3 2 1 0 0 0 0 0 0
0 0 0 0 0 0 0 0 0 0 0 0 0 0 0 0 0 0 0 0 0 0 0 0 0 0 0 0 1 3 4 5 6 5 4 3 3 2 0 0 0 0 0 0
0 0 0 0 0 0 0 0 0 0 0 0 0 0 0 0 0 0 0 0 0 0 0 0 0 0 0 0 0 1 3 4 4 4 3 3 2 1 0 0 0 0 0 0
0 0 0 0 0 0 0 0 0 0 0 0 0 0 0 0 0 0 0 0 0 0 0 0 0 0 0 0 0 1 2 3 3 3 3 3 1 1 1 1 0 0 0 0
0 0 0 0 0 0 0 0 0 0 1 0 0 0 0 0 0 0 0 0 0 0 0 0 0 0 0 0 0 1 2 3 1 1 2 2 1 1 2 2 1 1 0 0
0 0 0 0 0 0 0 0 0 0 1 0 0 0 0 0 0 0 0 0 0 0 0 0 0 0 0 0 0 1 2 2 1 1 2 1 1 1 3 3 2 2 1 0
Wind_Speed
4 4 3 4 4 4 5 7 8 8 8 9 7 5 5 4 3 3 3 3 4 5 5 5 5 6 6 7 7 7 8 8 8 7 6 5 6 6 5 6 6 6 5 5
1 2 2 2 3 4 5 4 6 4 7 6 4 2 2 3 4 4 5 5 4 4 4 5 6 7 7 7 7 7 8 7 7 6 6 6 6 5 5 5 5 5 5 5
3 3 2 4 5 5 4 4 5 7 7 3 2 3 5 5 5 6 5 4 4 5 5 5 6 7 7 7 6 7 7 6 6 6 6 6 6 6 6 6 5 4 4 4
2 1 5 7 2 2 3 2 2 3 3 3 4 4 3 3 5 5 5 4 4 3 3 4 4 4 4 5 5 5 5 5 5 6 6 5 5 6 5 5 5 5 5 5
4 3 5 6 2 1 1 2 1 1 2 3 2 2 3 2 2 4 4 4 4 4 4 4 4 5 6 6 6 5 5 5 6 6 6 6 6 6 4 4 4 4 5 5
4 4 6 7 4 3 1 3 2 1 1 2 2 1 4 3 1 1 1 2 2 2 3 4 3 5 6 6 6 6 6 6 6 6 6 7 6 5 4 4 4 5 5 5
4 4 7 5 5 2 3 5 4 2 2 1 2 4 4 3 2 1 2 2 3 3 3 3 4 5 5 5 6 6 5 5 5 5 5 5 4 4 4 4 4 4 3 3
4 3 7 3 2 2 4 3 2 3 2 2 3 3 3 2 2 1 1 2 3 3 2 2 4 5 4 5 5 4 4 4 4 4 4 4 4 4 4 4 4 3 3 2
6 6 4 2 2 2 2 1 2 2 3 2 3 3 3 3 2 2 1 2 2 3 2 1 2 4 5 4 2 3 4 5 4 4 4 4 5 5 4 4 4 3 3 3
2 5 4 3 2 2 1 2 3 3 2 2 3 3 3 3 2 2 1 1 2 2 2 1 1 2 3 2 3 4 4 4 4 4 4 3 3 4 4 4 4 4 4 3
3 5 4 4 3 3 3 3 4 4 4 3 2 3 3 2 2 2 1 1 2 2 3 3 2 1 1 1 3 4 4 4 4 4 4 4 4 4 5 5 6 6 5 4
6 6 4 6 5 4 4 5 4 4 5 4 3 3 2 2 2 2 2 2 2 2 3 3 2 2 1 1 2 3 3 4 4 4 4 4 3 2 3 3 4 6 5 5
6 4 5 6 6 5 4 5 5 4 4 4 4 2 2 2 2 1 2 3 4 4 4 3 3 2 2 2 2 3 4 4 3 4 4 4 4 4 3 1 1 3 4 5
5 3 4 5 6 6 5 5 4 4 3 3 3 2 1 1 1 2 3 4 4 3 3 3 3 3 3 3 3 4 4 4 4 4 4 4 5 5 4 4 3 2 2 3
6 5 7 6 6 5 4 3 3 3 3 3 2 2 2 2 3 3 4 3 3 3 3 3 4 4 3 4 4 4 4 3 3 3 3 4 4 4 4 4 4 2 1 1
5 4 4 5 6 5 4 3 3 4 4 3 3 3 4 4 3 3 2 2 3 4 4 4 5 5 3 3 3 3 3 4 4 3 3 3 3 4 4 4 4 4 3 2
3 4 5 5 6 6 5 5 5 5 5 5 5 4 3 2 2 3 3 3 4 4 4 5 5 4 4 4 4 3 3 3 5 4 4 4 4 4 4 4 4 4 4 4
6 6 6 6 6 5 5 5 4 5 5 5 5 3 3 3 4 5 4 2 2 3 4 5 4 3 3 4 4 3 3 3 3 4 4 4 4 4 4 4 4 4 3 3
3 3 4 4 4 4 4 4 5 5 5 4 3 3 4 4 4 4 3 2 3 4 5 4 4 3 3 4 4 3 3 4 3 3 3 4 4 3 3 4 4 4 4 4
4 4 4 4 4 3 4 4 4 4 4 3 3 3 3 3 3 3 3 3 4 4 4 3 3 3 3 3 4 3 3 3 3 3 3 3 3 3 3 4 4 4 4 4
5 4 4 4 3 3 4 3 3 4 4 3 3 3 4 3 2 2 2 3 4 3 3 3 2 3 2 3 4 3 3 3 3 3 3 3 3 3 3 4 4 4 4 4
4 4 4 3 3 3 3 2 2 3 3 3 3 3 3 3 3 2 3 3 3 2 2 1 2 2 2 3 2 2 3 3 3 3 3 3 3 3 3 4 4 4 4 4
4 3 4 4 3 3 3 2 2 2 3 3 3 3 3 3 2 2 3 3 2 2 1 2 2 2 3 2 2 2 3 3 3 3 3 3 4 4 4 4 4 4 4 4
3 3 3 3 2 2 3 3 3 2 2 3 3 2 2 1 2 2 2 2 2 2 1 2 3 3 3 2 2 2 3 3 3 3 3 3 3 3 3 3 4 3 4 4
3 3 3 3 3 3 3 3 3 2 2 2 2 2 2 1 2 2 1 1 1 1 1 2 2 2 2 2 2 2 2 3 3 3 3 3 3 3 3 3 3 3 3 4
4 3 3 3 3 3 2 2 2 2 2 2 2 2 2 1 1 1 1 1 1 1 1 1 0 1 1 2 2 2 2 2 2 2 2 3 3 3 3 3 3 3 3 3
4 3 3 3 2 2 2 1 1 2 2 1 2 2 2 1 1 1 1 1 1 1 1 1 0 1 1 1 1 1 1 1 2 2 2 2 2 2 2 3 3 2 2 3
Wind_Direction
228 238 211 220 223 195 194 193 194 227 226 248 248 236 236 224 208 191 191 193 195 192 188 179 181 181 178 178 175 174 171 182 194 196 197 192 190 189 186 188 193 190 186 193
283 267 238 259 258 220 226 215 223 236 252 260 267 243 250 228 198 201 209 203 201 191 184 185 189 185 179 179 175 168 171 185 190 181 180 186 188 183 182 185 183 179 184 188
254 298 5 272 244 211 210 220 193 214 239 265 274 243 227 219 208 212 212 205 202 197 190 190 192 185 181 178 168 168 177 184 184 176 182 188 186 179 186 188 181 183 189 192
164 91 228 241 268 208 186 245 243 241 260 246 238 248 241 220 209 219 211 198 200 194 193 190 182 176 164 158 167 174 178 181 181 180 185 183 181 187 190 182 180 186 192 200
138 185 265 290 288 213 201 284 314 254 312 324 339 23 335 276 225 220 211 200 198 197 183 163 162 165 155 163 169 173 186 191 191 185 182 180 185 190 188 179 182 188 189 195
141 169 223 247 287 297 127 267 305 343 307 326 40 63 275 297 301 269 200 177 176 176 144 139 155 154 156 168 173 190 198 198 193 183 180 186 188 182 177 178 190 191 199 201
169 207 253 266 300 15 163 247 301 286 272 247 212 226 267 307 304 257 187 157 149 144 135 153 150 145 152 166 196 204 193 183 180 179 183 178 173 171 171 175 177 186 197 209
155 189 251 294 49 151 230 280 299 296 289 273 271 290 309 311 305 334 140 129 137 137 141 139 145 151 163 196 209 185 171 172 175 176 181 169 165 171 173 171 171 181 188 210
189 212 246 269 212 234 216 270 294 298 310 306 306 307 307 300 298 311 204 155 142 140 134 124 152 158 177 209 189 168 167 172 175 171 175 166 167 171 169 169 177 190 197 213
256 272 276 289 286 297 288 281 293 300 304 313 292 287 291 298 305 316 311 161 132 121 130 169 205 171 186 186 171 172 175 178 177 173 171 164 167 172 177 183 189 193 201 213
258 277 309 307 282 288 314 326 331 329 320 294 275 277 269 271 261 247 243 207 148 160 185 202 200 186 197 185 168 177 179 179 179 178 173 178 184 185 189 199 195 194 200 200
228 232 220 260 277 296 302 305 307 317 324 317 277 265 271 261 245 223 208 188 179 189 198 207 190 188 205 203 187 173 176 183 187 184 182 183 186 192 200 200 206 202 198 192
233 245 239 259 274 274 272 286 292 291 285 296 297 272 263 259 238 219 210 200 201 208 211 208 197 200 210 190 179 186 188 191 192 192 190 189 188 188 202 233 200 191 189 190
252 258 274 269 270 277 278 286 295 298 293 283 284 290 276 258 218 202 218 216 210 206 212 210 207 221 220 194 190 196 193 197 194 196 195 192 194 197 194 192 199 229 212 196
261 247 245 265 280 286 287 297 312 310 309 309 312 296 266 240 232 235 238 218 198 203 215 213 220 237 223 203 204 207 203 204 199 192 192 193 192 190 195 195 192 189 207 217
272 275 257 256 263 271 278 278 279 281 284 283 281 271 257 244 240 250 248 202 191 216 225 222 233 240 228 213 213 212 211 212 199 191 187 189 190 191 195 197 195 192 197 196
249 263 258 257 258 262 258 255 254 263 270 269 260 259 264 264 263 262 249 230 224 232 231 227 235 236 221 209 204 213 211 209 199 191 195 196 195 194 195 199 202 205 200 189
234 236 234 234 241 255 266 264 260 261 264 269 264 256 253 238 239 246 244 234 243 264 256 240 232 224 220 211 202 204 202 203 200 203 203 202 202 198 194 200 206 207 205 185
274 258 253 251 250 249 259 267 269 271 273 266 255 252 251 245 244 247 236 207 217 245 258 249 233 220 223 220 210 205 204 206 207 206 206 200 198 198 199 204 208 205 201 193
294 273 263 265 262 253 259 268 275 283 283 267 259 265 264 255 244 244 227 229 237 238 251 252 234 225 222 217 209 206 205 206 204 203 200 200 203 204 207 211 210 207 206 206
308 296 285 279 273 269 264 265 271 279 284 276 258 256 258 260 245 231 221 259 271 255 251 246 232 231 220 202 198 201 202 204 203 201 205 208 210 213 215 215 215 213 210 211
313 311 308 301 290 289 291 285 267 269 283 286 275 266 265 268 263 252 239 242 261 260 252 244 235 224 208 193 193 196 202 203 206 206 206 206 206 211 216 214 211 212 211 209
304 304 308 302 292 289 308 311 299 283 276 271 262 262 258 256 245 228 267 270 254 244 245 249 240 221 206 192 189 192 199 202 206 209 209 208 207 208 212 214 212 210 209 206
309 311 308 304 310 318 314 308 305 293 284 277 269 267 259 257 278 265 255 265 244 227 241 242 234 222 201 197 190 194 202 206 209 213 213 212 211 208 212 212 212 211 208 205
313 317 320 328 324 304 296 307 323 316 299 301 309 310 294 254 248 274 284 272 248 229 260 246 214 204 202 197 196 197 201 204 204 206 210 212 211 209 212 213 211 208 205 205
314 310 306 299 291 287 283 286 287 287 299 316 321 317 309 301 290 296 319 320 318 295 296 301 213 194 204 196 194 197 196 196 200 210 214 215 211 208 208 209 212 210 208 206
318 317 323 322 319 308 298 280 276 288 286 278 289 293 294 301 307 306 295 290 306 309 314 311 259 222 220 207 199 199 197 201 207 210 212 215 211 210 212 207 206 202 204 206